Home   Weather   Columbus Park   Past weeks
Flag for USA

Past Weather in Columbus Park, California, USA — Yesterday and Last 2 Weeks

Now
40 °F

Clear.


Feels Like: 40 °F
Forecast: 55 / 39 °F
Wind: No wind

Location: San Jose International Airport

Current Time: Jan 18, 2020 at 3:33:20 am

Latest Report: Jan 18, 2020 at 2:53 am


Visibility: 10 mi

Pressure: 30.31 "Hg

Humidity: 89%

Dew Point: 37 °F

Location of Columbus ParkLocation

Past Weather in Columbus Park — Graph

°F

Columbus Park Temperature Yesterday

Maximum temperature yesterday: 56 °F (at 1:53 pm)
Minimum temperature yesterday: 38 °F (at 4:53 am)
Average temperature yesterday: 46 °F

High & Low Weather Summary for the Past Weeks

 TemperatureHumidityPressure
High68 °F (Jan 3, 2:53 pm)97% (Jan 13, 6:53 am)30.59 "Hg (Jan 13, 6:53 am)
Low36 °F (Jan 15, 5:53 am)37% (Jan 6, 1:53 pm)29.73 "Hg (Jan 16, 8:53 am)
Average49 °F76%30.22 "Hg
* Reported Jan 3 1:53 am — Jan 18 1:53 am, Columbus Park. Weather by CustomWeather, © 2020

Note: Actual official high and low records may vary slightly from our data, if they occured in-between our weather recording intervals... More about our weather records

Columbus Park Weather History for the Previous 24 Hours

Scroll right to see more
 ConditionsComfort  
Time TempWeatherWind HumidityBarometerVisibility
1:53 am
Sat, Jan 18
42 °FClear.No wind85%30.31 "Hg10 mi
12:53 am41 °FClear.No wind82%30.32 "Hg10 mi
11:53 pm
Fri, Jan 17
43 °FClear.No wind79%30.32 "Hg10 mi
10:53 pm45 °FPassing clouds.3 mph76%30.32 "Hg10 mi
9:53 pm46 °FPassing clouds.No wind73%30.31 "Hg10 mi
8:53 pm43 °FPassing clouds.7 mph82%30.30 "Hg10 mi
7:53 pm48 °FOvercast.5 mph71%30.29 "Hg10 mi
6:53 pm48 °FOvercast.7 mph74%30.29 "Hg10 mi
5:53 pm48 °FPartly cloudy.6 mph71%30.28 "Hg10 mi
4:53 pm52 °FMostly cloudy.6 mph57%30.28 "Hg10 mi
3:53 pm55 °FMostly cloudy.No wind51%30.28 "Hg10 mi
2:53 pm56 °FMostly cloudy.6 mph51%30.28 "Hg10 mi
1:53 pm56 °FPartly sunny.5 mph49%30.28 "Hg10 mi
12:53 pm54 °FPartly sunny.No wind51%30.29 "Hg10 mi
11:53 am53 °FPartly sunny.3 mph61%30.31 "Hg10 mi
10:53 am50 °FPartly sunny.No wind71%30.32 "Hg10 mi
9:53 am46 °FBroken clouds.5 mph79%30.32 "Hg10 mi
8:53 am43 °FBroken clouds.3 mph89%30.31 "Hg10 mi
7:53 am38 °FBroken clouds.5 mph97%30.30 "Hg10 mi
6:53 am39 °FPassing clouds.5 mph89%30.28 "Hg10 mi
5:53 am39 °FClear.6 mph93%30.25 "Hg10 mi
4:53 am38 °FClear.3 mph97%30.24 "Hg10 mi
3:53 am39 °FClear.5 mph93%30.22 "Hg10 mi
Weather by CustomWeather, © 2020

See weather overview

Advertising